Theta_e
313 313 312 311 311 311 309 309 309 307 307 306 306 306 306 306 305 304 303 304 305 304 305 307 308 309 311 314 315 313 314 315 314 310 307 305 305 305 304 305 304 304 303
312 311 310 310 310 310 308 307 306 305 305 304 303 303 304 304 304 303 303 302 302 301 303 303 305 306 307 308 309 310 310 312 310 307 306 306 307 307 307 307 306 304 303
309 309 309 308 308 307 307 306 306 305 304 303 303 302 303 303 303 302 302 302 302 301 300 300 303 305 306 307 307 308 308 308 308 307 307 306 306 307 307 308 307 306 305
312 310 308 308 308 307 306 305 304 304 303 303 302 301 301 301 301 302 301 301 300 300 301 304 305 306 306 307 307 307 307 307 307 307 307 307 307 308 307 307 307 307 306
312 313 312 309 306 305 305 304 304 304 303 304 303 302 301 302 300 300 301 301 301 301 303 305 306 306 307 307 307 308 309 307 307 307 308 308 308 308 308 308 307 306 305
306 307 307 307 308 307 304 304 304 305 304 304 304 302 302 302 301 301 302 302 302 304 305 305 306 305 304 305 306 307 308 309 308 308 308 309 309 309 309 308 306 305 305
305 305 304 303 303 302 303 304 305 305 305 304 304 304 304 303 302 303 304 304 304 304 304 304 303 304 305 305 303 304 305 306 307 309 309 309 309 309 309 308 306 305 303
306 306 306 304 303 302 302 302 303 305 305 304 304 304 303 302 301 302 300 303 303 302 303 304 305 305 306 307 307 307 308 308 308 307 308 309 309 308 307 306 304 302 301
306 306 307 307 305 303 303 303 302 302 302 302 303 303 304 303 301 302 302 303 304 305 305 306 307 307 307 304 306 308 309 309 308 306 306 306 305 303 301 301 300 299 301
305 306 307 306 305 304 303 303 303 303 303 303 303 302 302 303 301 301 301 303 303 303 305 307 306 307 308 306 306 309 309 309 308 306 302 301 301 301 300 298 297 300 300
306 307 306 307 306 304 305 305 304 304 303 303 303 303 303 303 303 300 300 303 305 306 307 307 308 307 306 306 306 309 309 308 307 305 305 305 304 303 301 301 301 301 300
307 306 306 305 304 306 307 307 306 305 305 305 305 305 304 304 303 304 302 302 306 308 309 309 310 310 307 306 306 306 307 306 303 303 303 303 302 301 300 301 300 300 300
308 308 307 307 307 307 308 309 308 308 308 308 308 308 308 308 309 306 306 305 305 307 310 309 308 309 306 306 305 305 305 303 302 302 303 302 301 300 301 301 301 300 301
309 310 309 308 308 308 308 308 308 309 309 310 310 310 311 311 311 311 307 307 307 307 307 306 305 304 304 305 304 303 302 301 302 302 302 301 300 301 301 300 300 301 301
311 311 310 309 309 308 308 308 309 309 309 310 310 311 311 311 311 311 310 310 309 308 306 305 304 303 302 302 302 302 303 303 302 301 301 301 301 301 301 301 301 301 301
310 309 309 309 308 308 308 309 308 308 308 308 309 310 310 307 308 308 308 308 309 307 302 302 302 301 301 301 302 303 303 302 302 302 302 302 302 302 302 301 301 301 302
310 309 309 308 308 308 308 309 309 308 307 307 307 307 308 308 306 305 306 306 306 304 300 302 303 303 303 303 303 303 304 304 304 303 303 303 303 302 302 302 301 301 300
310 309 309 308 308 308 309 309 309 309 311 310 307 308 308 308 307 306 306 305 303 301 302 303 304 305 305 305 305 305 305 305 305 304 304 303 303 303 302 302 301 301 300
310 309 309 308 309 308 308 308 309 309 309 309 309 309 308 307 307 307 306 306 307 306 306 306 306 306 306 306 306 306 306 306 305 305 304 304 303 302 301 300 299 299 298
310 310 309 309 308 308 308 308 309 309 309 309 309 309 309 307 307 307 306 307 308 307 307 307 307 307 307 307 306 306 306 305 305 304 303 302 301 300 299 299 298 298 298
311 311 309 309 309 309 309 309 309 309 309 309 309 308 308 309 309 308 307 307 307 307 306 306 306 306 306 306 306 305 305 304 303 302 301 299 298 297 298 297 296 297 298
311 311 311 311 309 309 309 309 310 309 309 309 308 309 308 309 308 306 306 307 306 306 306 307 306 306 306 305 304 303 302 301 300 299 298 295 295 295 295 295 296 297 297
313 313 312 311 311 310 309 309 309 310 309 309 309 308 307 309 309 306 305 306 307 307 306 306 305 304 303 301 300 299 299 299 298 296 295 295 294 294 293 295 296 296 295
312 312 312 312 311 311 311 310 309 309 310 310 310 310 309 309 308 307 307 306 305 304 302 301 300 300 299 299 298 297 296 296 295 295 294 294 293 293 294 296 295 294 294
312 313 312 312 312 311 311 311 311 311 312 311 311 311 310 308 308 306 303 301 299 298 298 297 296 295 295 294 294 294 293 293 293 293 293 293 293 295 294 294 293 293 292
313 313 313 313 312 311 312 312 312 311 312 312 311 309 307 304 303 299 298 298 297 296 296 295 295 294 294 294 293 291 291 291 292 291 291 294 293 293 293 292 291 291 290
Wind_Speed
5 4 5 6 7 8 10 12 14 19 20 18 19 21 22 20 19 12 4 9 6 13 19 15 17 10 13 12 13 14 10 11 14 15 14 14 12 9 6 5 5 6 8
2 2 6 7 8 11 11 12 12 12 14 19 22 24 22 21 23 19 12 10 11 14 14 16 15 14 13 14 11 15 12 9 19 18 16 14 11 9 7 7 7 7 8
5 5 6 8 12 14 14 14 16 14 14 14 15 21 24 21 18 16 13 10 8 8 11 15 14 13 14 13 12 12 13 12 15 15 12 11 9 9 9 9 9 9 10
4 7 10 12 13 13 14 14 14 16 16 15 13 15 15 19 21 18 17 14 13 12 12 10 10 9 13 13 14 12 13 13 11 12 10 10 10 9 8 9 9 10 11
2 7 8 9 11 13 13 12 11 10 12 11 15 17 16 15 18 19 17 15 15 13 11 9 8 10 12 11 11 11 13 11 10 10 9 9 9 10 9 7 9 11 13
6 4 4 6 7 8 11 12 12 12 12 14 16 17 18 15 16 18 19 18 15 12 10 8 9 9 9 12 10 11 9 8 7 6 6 5 5 8 9 10 11 13 13
7 5 5 7 8 9 11 10 11 14 14 13 15 15 14 15 19 15 12 10 11 10 9 7 6 7 9 8 9 10 10 10 7 6 7 8 8 10 12 11 13 15 17
7 7 8 9 10 11 13 13 10 10 13 13 12 13 13 13 15 14 14 9 6 6 8 9 7 7 8 9 9 8 8 8 10 10 10 10 11 12 11 13 15 17 18
7 9 10 12 15 11 11 13 11 12 9 6 8 9 11 11 11 10 10 7 7 9 9 10 10 11 10 11 9 10 10 11 10 15 15 15 16 17 16 14 17 19 19
11 11 9 8 10 8 12 12 15 12 10 10 9 9 8 8 10 11 12 12 12 13 13 13 16 12 14 14 13 11 12 12 12 11 10 15 17 17 17 20 20 21 21
12 10 7 6 10 11 11 12 11 10 10 12 13 14 15 17 16 19 20 16 14 15 14 14 14 16 18 16 15 13 14 11 12 13 16 16 16 17 18 19 19 20 22
15 5 3 7 8 9 13 14 14 13 12 12 12 13 15 16 20 20 24 24 16 14 13 12 12 15 15 16 16 15 18 15 14 17 16 16 17 18 18 19 20 21 23
13 12 12 12 14 14 14 13 15 16 15 16 18 18 18 18 18 22 20 21 20 18 13 11 11 12 12 14 17 16 15 14 17 16 17 18 18 18 17 18 20 22 25
13 14 16 17 16 16 15 14 14 13 13 13 13 13 12 13 14 13 17 18 18 16 15 13 11 10 12 12 11 14 16 17 17 18 19 19 18 18 19 20 22 23 26
12 11 12 16 16 15 16 16 15 15 13 12 11 10 11 11 14 13 13 14 15 15 11 10 11 12 12 12 13 15 16 17 19 20 19 18 18 19 21 22 24 26 27
13 13 14 14 15 16 16 14 16 11 13 14 10 8 7 5 3 10 15 16 14 13 12 13 12 12 13 15 15 17 18 19 18 18 18 19 21 23 24 25 27 28 27
17 14 14 15 15 15 14 15 16 16 18 17 17 16 16 11 10 10 10 13 15 13 13 14 15 15 16 17 17 17 17 17 17 19 22 24 25 27 27 29 27 25 26
20 18 17 16 18 16 16 16 16 15 17 18 21 19 16 16 18 14 11 12 11 17 19 19 18 17 17 17 17 18 19 20 21 22 24 26 27 28 29 27 25 28 27
21 21 20 21 19 18 17 18 18 17 15 14 9 14 16 17 18 20 19 20 20 20 20 20 18 17 18 18 19 20 21 23 23 24 25 26 26 26 24 24 25 24 21
22 22 19 18 20 19 20 19 19 18 16 17 17 16 13 19 17 19 21 23 24 22 20 20 20 20 20 21 22 22 23 23 23 23 22 22 22 22 21 20 18 20 27
23 23 27 24 21 22 22 22 21 21 20 20 19 19 16 15 15 17 18 17 17 18 20 19 19 19 19 20 20 21 22 21 20 19 19 20 19 19 21 21 22 25 27
25 25 24 26 27 25 24 22 19 22 23 23 21 20 19 19 19 19 19 18 17 16 15 15 16 17 17 16 15 14 15 17 19 21 20 19 21 21 19 20 21 21 22
26 26 26 26 27 27 26 29 27 25 27 27 21 21 13 17 16 19 18 16 13 12 11 10 10 11 10 8 8 9 12 14 13 14 17 18 18 18 17 16 18 18 18
22 23 26 28 29 29 29 29 31 32 31 28 27 26 25 19 15 13 12 11 10 9 7 6 6 7 8 6 4 5 7 8 8 8 8 9 10 15 14 15 15 16 19
21 24 28 28 29 29 29 30 26 25 25 28 28 24 19 13 13 11 11 8 8 6 4 3 3 3 2 4 6 8 11 9 8 11 11 9 10 12 12 13 15 17 20
13 15 21 23 24 24 27 30 25 23 19 19 13 10 9 11 9 10 10 9 8 7 6 4 2 1 2 2 4 6 6 5 4 6 8 11 10 11 12 14 16 19 21
Wind_Direction
36 70 94 113 131 137 159 156 147 164 156 143 143 142 154 139 130 117 156 97 93 109 120 115 108 126 142 164 157 151 159 194 155 167 173 179 184 192 210 213 249 263 274
6 113 105 121 128 120 125 121 134 136 133 140 145 137 130 128 131 125 128 108 93 92 85 105 108 134 128 133 146 140 153 158 153 165 168 178 195 203 217 236 251 265 270
87 104 128 118 116 108 113 124 123 125 122 126 129 133 138 134 125 141 147 133 116 92 86 91 115 132 126 134 139 135 137 150 159 163 165 178 192 210 229 244 249 267 279
106 118 120 123 125 124 126 123 130 129 129 132 128 124 131 130 131 136 146 144 142 142 146 162 142 129 124 136 133 135 130 144 143 149 156 183 207 206 237 269 271 268 285
132 120 127 138 142 141 138 134 129 135 137 142 145 143 149 147 154 156 158 160 163 163 160 151 153 161 152 132 131 149 149 149 155 167 181 200 213 219 232 274 281 282 282
102 98 126 135 146 148 147 146 144 153 158 160 155 156 155 160 166 163 164 163 170 170 159 169 171 152 145 160 159 148 151 158 173 202 206 226 245 256 259 268 274 283 288
140 157 149 136 135 148 150 148 163 154 149 149 152 155 155 148 168 162 153 149 160 169 169 175 174 177 172 173 171 179 184 190 191 210 238 252 272 265 276 276 272 281 284
184 192 183 163 150 148 146 138 125 136 145 151 152 157 154 152 163 166 164 161 155 182 191 193 188 188 187 186 194 205 214 225 232 232 242 256 263 261 259 266 273 279 276
206 209 208 174 147 147 167 164 180 158 170 146 177 168 161 166 175 172 197 209 213 209 214 215 214 213 216 216 223 240 243 247 251 247 243 246 249 255 255 268 272 270 273
202 222 217 185 148 159 146 159 164 175 178 181 173 187 205 206 217 214 214 215 224 221 226 228 227 218 230 231 229 236 247 253 248 249 257 255 257 263 265 257 260 266 275
206 200 188 202 178 175 176 181 182 183 183 194 201 204 212 217 221 224 217 213 218 218 226 224 228 232 231 235 232 235 249 254 254 251 255 256 255 255 257 248 244 256 274
177 190 204 172 207 205 195 185 183 186 190 196 201 205 211 214 217 222 222 224 226 238 233 232 236 228 235 231 232 233 241 246 253 256 254 258 260 260 255 249 256 262 268
198 186 204 199 205 207 199 198 196 198 203 202 204 210 215 208 212 214 220 226 232 236 248 243 238 235 239 236 236 230 241 243 248 254 256 260 264 265 266 266 267 269 271
215 218 216 220 217 216 215 207 217 216 214 213 216 216 214 207 206 201 210 219 222 226 238 244 237 221 225 229 235 233 239 242 246 252 258 263 264 264 264 267 272 276 280
228 239 219 203 204 206 214 213 215 220 216 216 217 218 207 209 212 207 208 210 215 218 220 222 219 225 231 234 238 240 239 239 241 247 253 261 266 270 270 272 272 275 276
227 219 215 217 195 212 202 208 226 234 224 227 226 228 262 246 199 211 219 218 220 223 218 235 233 234 234 235 235 236 235 236 248 258 263 267 270 273 274 274 273 274 278
229 233 215 223 211 214 219 218 216 209 230 238 240 241 242 234 221 220 215 211 218 223 228 239 236 238 239 239 245 252 260 267 274 271 270 272 274 274 272 274 275 275 280
223 233 238 228 226 233 227 224 230 230 206 214 226 229 239 235 228 230 221 212 222 223 237 240 240 242 245 251 259 266 271 273 273 272 272 272 274 276 278 278 279 279 279
218 226 221 235 235 227 229 223 227 230 239 246 222 194 225 227 227 228 222 218 233 233 228 234 246 256 262 267 272 275 278 278 280 284 284 282 283 286 284 278 278 276 278
221 229 226 222 227 221 225 233 232 233 237 234 236 238 203 196 208 217 220 227 242 249 251 254 260 263 266 270 274 277 280 281 281 279 281 286 291 287 287 286 279 275 276
224 222 219 225 225 228 224 232 234 238 240 239 239 237 239 235 242 240 238 236 237 249 251 258 267 272 275 279 283 282 284 287 287 289 290 291 285 280 282 274 271 272 276
233 233 223 222 232 232 234 235 244 246 243 242 240 240 215 222 249 256 252 251 251 252 259 270 273 278 283 290 292 293 292 295 293 289 286 285 285 279 267 266 271 271 276
234 241 236 230 230 237 235 235 236 237 250 255 245 254 208 233 237 250 252 255 260 258 253 255 264 270 274 284 285 287 284 287 292 285 284 288 279 273 270 264 269 279 295
232 238 251 245 236 228 227 230 230 230 241 246 244 248 242 227 233 236 230 222 220 225 222 232 254 270 277 263 274 282 290 290 295 291 280 270 268 275 262 269 282 298 301
237 242 244 241 242 239 238 243 238 234 221 227 234 236 239 220 207 193 180 185 175 171 205 221 209 221 222 256 272 288 289 288 271 278 279 277 254 263 277 286 294 304 306
253 253 258 252 247 237 253 242 236 238 230 229 226 192 182 165 181 164 163 165 159 149 158 162 173 240 287 293 284 272 276 270 262 276 278 271 278 290 300 308 307 305 305